Location: La Bouchardière
(47.1244°N, 0.9739°E)
Time: 00:32:56
(UTC+00:00)

Daily predictions for brighter satellites

Satellite Brightness Start Highest point End
(mag) Time Altitude Azimuth Time Altitude Azimuth Time Altitude Azimuth
SL-16 R/B 4.4 03:46:48 18° NNE 03:47:52 19° NE 03:51:46 10° E
Cosmos 2082 Rocket 3.8 03:49:32 28° ESE 03:50:31 30° ESE 03:55:21 10° NE
COSMOS 2455 3.7 03:58:09 44° ENE 03:58:09 44° ENE 04:03:33 10° ESE
ATLAS 3B R/B 4.5 03:59:03 23° N 03:59:15 23° N 04:05:15 10° NE
Cosmos 1980 Rocket 3.2 04:14:14 37° SSE 04:14:14 37° SSE 04:17:29 10° SSE
Cosmos 2098 Rocket 4.4 04:15:58 50° SE 04:15:58 50° SE 04:20:19 10° SSE
Cosmos 2369 4.2 04:16:16 55° NE 04:16:18 55° ENE 04:21:51 10° SE
Aureole 1 Rocket 4.4 04:20:44 45° N 04:23:07 72° ENE 04:30:36 10° SSE
Cosmos 372 Rocket 4.2 04:33:38 66° E 04:33:38 66° E 04:38:16 10° SSE
Cosmos 2333 Rocket 3.9 04:33:56 18° N 04:37:07 29° NE 04:42:05 10° ESE
Cosmos 1606 Rocket 4.2 04:43:11 52° NE 04:43:36 54° ENE 04:47:55 10° SSE
Cosmos 2360 Rocket 4.1 04:40:11 13° N 04:43:45 23° NE 04:48:11 10° E
Cosmos 2142 Rocket 4.3 04:47:06 46° NNW 04:49:02 74° W 04:55:12 10° S
Helios 1A Rocket 3.9 04:52:41 10° SE 04:55:45 35° ENE 04:55:46 35° ENE
USA 234 4.0 04:50:14 10° ENE 04:56:09 38° N 04:57:47 33° NNW
SeaSat 1 4.5 04:57:16 10° N 04:58:19 15° N 04:58:19 15° N
SL-4 R/B 3.4 05:03:15 25° NE 05:03:15 25° NE 05:04:57 10° ENE
Cosmos 2219 Rocket 4.3 04:58:18 10° N 05:02:31 21° NE 05:06:42 10° E
Cosmos 2322 Rocket 3.6 05:01:43 14° N 05:06:02 34° NE 05:11:11 10° ESE
Cosmos 1726 Rocket 3.6 05:08:07 32° N 05:10:04 75° E 05:14:18 10° SSE
Meteor 2-3 Rocket 4.1 05:04:46 10° S 05:10:26 65° E 05:16:05 10° NNE
Cosmos 489 Rocket 4.5 05:08:05 10° SSW 05:14:24 86° ESE 05:20:42 10° NNE
Nadezhda 4 Rocket 3.9 05:09:07 10° SSW 05:15:26 77° W 05:21:45 10° N
CZ-4 R/B 3.7 05:11:13 10° NNE 05:15:54 84° ESE 05:20:30 10° SSW
Cosmos 1428 Rocket 4.4 05:10:19 10° S 05:16:32 89° WNW 05:22:52 10° N
NOSS 2-1 (D) 3.3 05:17:47 61° SW 05:17:47 61° SW 05:22:20 10° SSE
Cosmos 2237 4.1 05:15:45 35° NW 05:18:16 76° WSW 05:23:56 10° SSE
USA 59 Rocket 0.0 05:20:26 52° SW 05:20:26 52° SW 05:25:03 10° SSE
Cosmos 841 Rocket 3.4 05:17:09 10° SSW 05:22:23 80° WNW 05:27:41 10° NNE
COSMOS 2406 3.2 05:17:14 10° SSW 05:22:54 83° ESE 05:28:37 10° NNE
NOSS 2-1 (E) 3.2 05:25:12 61° W 05:25:33 65° SW 05:30:11 10° SSE
Cosmos 1933 4.4 05:27:10 27° SSW 05:27:10 27° SSW 05:29:12 10° SSW
NOSS 3-1 (C) 4.0 05:21:26 28° NW 05:25:48 78° SW 05:34:41 10° SSE
Cosmos 1833 Rocket 4.4 05:28:01 16° NNW 05:28:01 16° NNW 05:30:16 10° N
Cosmos 1892 Rocket 3.5 05:25:04 10° S 05:29:25 84° E 05:33:50 10° N
Cosmos 2195 Rocket 4.4 05:23:36 10° S 05:29:52 88° W 05:36:14 10° N
SL-16 R/B 2.2 05:28:40 19° NNW 05:32:52 82° ENE 05:38:32 10° SSE
Cosmos 2082 Rocket 2.4 05:31:29 26° WSW 05:34:22 48° NW 05:39:48 10° NNE
IRS-1D 3.6 05:38:11 10° N 05:43:01 51° WNW 05:47:54 10° SW
COSMOS 2455 3.3 05:41:19 28° WNW 05:43:41 39° WSW 05:49:12 10° S
Cosmos 1898 Rocket 4.0 05:42:42 30° WNW 05:44:22 37° WSW 05:49:10 10° S
NOSS 2-1 (C) 3.9 05:44:49 33° W 05:45:34 37° SW 05:49:57 10° SSE
Meteor 2-20 4.3 05:39:48 10° NNW 05:45:55 75° W 05:51:58 10° S
Cosmos 405 Rocket 4.4 05:45:16 10° SSE 05:48:08 30° E 05:51:03 10° NNE
Orbus 7S? 3.8 05:47:32 25° N 05:48:16 30° NNE 05:50:45 10° E
ATLAS 3B R/B 4.2 05:46:18 12° NNW 05:52:37 32° NNE 05:59:20 10° E
Cosmos-2242 2.8 05:50:12 10° N 05:54:27 84° W 05:58:39 10° S
Cosmos 1980 Rocket 3.8 05:56:02 15° WSW 05:56:02 15° WSW 05:58:21 10° SW
Cosmos 2278 3.6 05:51:02 14° NNW 05:55:58 78° WSW 06:01:36 10° SSE
COSMO-SKYMED 1 2.9 05:52:53 10° SSW 05:56:44 39° W 05:59:09 20° NW
Tiangong 0.3 05:59:42 12° SW 06:00:51 14° SSW 06:02:35 10° S
Cosmos 2058 Rocket 3.0 05:57:12 10° NNW 06:01:37 65° W 06:05:58 10° S
Cosmos 1484 Rocket 2.3 05:58:15 10° N 06:01:41 72° WNW 06:05:02 10° SSW
Cosmos 1627 Rocket 4.4 05:56:22 10° SSW 06:02:25 64° WNW 06:08:32 10° N
Meteor 2-2 Rocket 4.2 05:59:14 10° NNW 06:04:53 70° W 06:10:37 10° S
Okean 1 2.9 06:03:48 10° NNW 06:07:21 67° W 06:10:52 10° S
Meteor 2-20 Rocket 4.2 06:02:21 10° NNW 06:08:06 70° W 06:13:45 10° S
Cosmos 1937 Rocket 4.2 06:06:02 18° NW 06:08:53 31° W 06:13:19 10° SSW
ARIANE 5 R/B 3.8 06:08:47 10° NNE 06:13:49 46° E 06:18:48 10° S
Cosmos 2285 Rocket 4.1 06:07:36 10° NNW 06:14:01 82° ENE 06:20:26 10° SSE
ATLAS 2AS CENTAUR R/B 4.4 06:08:00 10° S 06:14:24 38° ESE 06:20:40 10° NE
IRIDIUM 104 4.3 06:12:32 10° S 06:17:45 87° W 06:23:01 10° N
Cosmos 2333 Rocket 2.4 06:16:07 10° NW 06:21:47 58° WSW 06:27:23 10° S
SAR-Lupe-4 4.4 06:20:34 10° NNE 06:24:03 53° E 06:27:32 10° S
SMAP 3.2 06:20:23 10° NNE 06:25:04 81° ESE 06:29:44 10° SSW
IRIDIUM 114 4.3 06:21:42 10° S 06:26:54 73° W 06:32:08 10° N
Cosmos 2360 Rocket 2.2 06:22:42 10° NNW 06:28:20 74° WSW 06:33:55 10° SSE
Helios 1A Rocket 4.1 06:26:27 10° SW 06:28:29 15° W 06:29:20 14° WNW
Landsat 7 4.0 06:26:20 10° NNE 06:31:02 75° ESE 06:35:40 10° S
Cosmos 2026 Rocket 4.4 06:26:30 10° SW 06:32:04 37° WNW 06:37:42 10° N
NOSS 3-1 (A) 4.2 06:25:11 10° NW 06:32:22 66° SW 06:41:12 10° SSE
Cosmos 1814 Rocket 4.0 06:28:21 10° SSW 06:33:35 77° WNW 06:38:54 10° NNE
CBERS-1 4.0 06:28:43 10° N 06:33:44 59° WNW 06:38:43 10° SSW
IGS 5A 3.7 06:30:47 10° N 06:34:33 40° WNW 06:38:18 10° SW
BREEZE-M DEB (TANK) 1.8 06:34:37 15° W 06:35:59 60° SSW 06:38:36 10° ESE
IRIDIUM 103 4.4 06:30:57 10° SSW 06:36:06 60° W 06:41:17 10° N
Cosmos 2237 Rocket 4.3 06:32:49 10° N 06:36:39 18° NE 06:40:29 10° E
USA 234 3.8 06:32:08 10° E 06:38:23 49° NNE 06:44:39 10° NW
SL-4 R/B 1.5 06:36:58 12° WNW 06:39:52 65° NNE 06:43:01 10° ESE
Cosmos 1758 Rocket 3.5 06:35:35 10° SSW 06:39:58 65° W 06:44:22 10° N
Cosmos 1733 2.2 06:39:12 10° SW 06:40:51 28° WNW 06:42:32 10° NNW
Cosmos 1743 2.2 06:37:51 10° SSW 06:41:04 77° W 06:44:20 10° N
IRS-1C 4.4 06:37:41 10° NNE 06:43:02 77° ESE 06:48:21 10° S
Meteor 2-6 Rocket 4.5 06:39:18 10° NNW 06:45:10 60° W 06:50:59 10° S
BREEZE-M DEB (TANK) 3.2 06:42:50 10° W 06:45:37 68° N 06:53:10 10° E
Thor Agena Rocket 3.5 06:41:13 10° N 06:46:15 65° WNW 06:51:13 10° SSW
Cosmos 2219 Rocket 2.2 06:41:30 10° NNW 06:47:13 86° WSW 06:52:51 10° SSE
Cosmos 192 4.4 06:42:36 10° NNW 06:47:34 84° ENE 06:52:28 10° SSE
Cosmos 2322 Rocket 2.6 06:44:48 10° NW 06:50:12 45° WSW 06:55:34 10° S
S3M 4.1 06:44:47 10° N 06:51:02 87° E 06:57:10 10° S
Cosmos 1553 Rocket 4.4 06:47:32 10° NNW 06:53:35 46° W 06:59:37 10° SSW
